Chesterfield, MO

10:12 PM CST on February 12, 2016 (GMT -0600)
Spirit Of Saint Louis

Weather History for KSUS - January, 2014

Change the Weather History Date:

Tuesday, January 14, 2014

  Actual Average Record
Temperature  
Mean Temperature 36 °F -  
Max Temperature 48 °F 36 °F 64 °F (2016)
Min Temperature 23 °F 18 °F 12 °F (2015)
Degree Days  
Heating Degree Days 30    
Moisture  
Dew Point 21 °F    
Average Humidity 60    
Maximum Humidity 92    
Minimum Humidity 34    
Precipitation  
Precipitation 0.00 in - - ()
Sea Level Pressure  
Sea Level Pressure 29.93 in    
Wind  
Wind Speed 8 mph (WNW)    
Max Wind Speed 24 mph    
Max Gust Speed 32 mph    
Visibility 10 miles    
Events Rain    
Averages and records for this station are not official NWS values.
T = Trace of Precipitation, MM = Missing Value Source: NWS Daily Summary

Daily Weather History Graph

Daily Weather History Graph

Search for Another Location

Airport or City:

Trip Planner

Search our weather history database for the weather conditions in past years. The results will help you decide how hot, cold, wet, or windy it might be!

Date:

Astronomy

Jan. 14, 2014 Rise Set
Actual Time 7:19 AM CST 5:04 PM CST
Civil Twilight 6:50 AM CST 5:33 PM CST
Nautical Twilight 6:17 AM CST 6:06 PM CST
Astronomical Twilight 5:45 AM CST 6:38 PM CST
Moon 4:09 PM CST (1/14) 5:54 AM CST (1/14)
Length of Visible Light 10h 43m
Length of Day
9h 45m
Waxing Gibbous, 98% of the Moon is Illuminated
Jan 14
Waxing Gibbous
Jan 15
Full
Jan 23
Last Quarter
Jan 30
New
Feb 6
First Quarter

Hourly Weather History & Observations

Time (CST) Temp. Windchill Dew Point Humidity Pressure Visibility Wind Dir Wind Speed Gust Speed Precip Events Conditions
12:54 AM 25.0 °F - 21.9 °F 88% 29.87 in 10.0 mi Calm Calm - N/A   Clear
1:54 AM 24.1 °F - 21.0 °F 88% 29.86 in 10.0 mi Calm Calm - N/A   Clear
2:54 AM 24.1 °F - 21.9 °F 91% 29.85 in 10.0 mi Calm Calm - N/A   Clear
3:54 AM 24.1 °F - 21.0 °F 88% 29.82 in 10.0 mi Calm Calm - N/A   Clear
4:54 AM 23.0 °F - 21.0 °F 92% 29.79 in 10.0 mi Calm Calm - N/A   Clear
5:54 AM 23.0 °F - 19.9 °F 88% 29.78 in 10.0 mi Calm Calm - N/A   Clear
6:54 AM 32.0 °F 26.4 °F 24.1 °F 73% 29.78 in 10.0 mi WSW 5.8 mph - N/A   Partly Cloudy
7:54 AM 39.0 °F 30.6 °F 26.1 °F 60% 29.79 in 10.0 mi WSW 15.0 mph - N/A   Mostly Cloudy
8:54 AM 39.9 °F 32.9 °F 26.1 °F 58% 29.81 in 10.0 mi WSW 11.5 mph - N/A   Mostly Cloudy
9:54 AM 43.0 °F 36.4 °F 28.0 °F 56% 29.86 in 10.0 mi West 12.7 mph - N/A   Mostly Cloudy
10:27 AM 42.8 °F 34.3 °F 33.8 °F 70% 29.87 in 10.0 mi WNW 19.6 mph 25.3 mph 0.00 in Rain Light Rain
10:54 AM 44.1 °F 38.6 °F 35.1 °F 71% 29.89 in 10.0 mi WNW 10.4 mph - 0.00 in   Mostly Cloudy
11:54 AM 45.0 °F 38.5 °F 30.9 °F 58% 29.88 in 10.0 mi WNW 13.8 mph 24.2 mph N/A   Mostly Cloudy
12:54 PM 48.9 °F - 24.1 °F 38% 29.89 in 10.0 mi WNW 13.8 mph 25.3 mph N/A   Clear
1:54 PM 46.0 °F 37.6 °F 19.0 °F 34% 29.93 in 10.0 mi WNW 24.2 mph 32.2 mph N/A   Clear
2:54 PM 46.0 °F 39.6 °F 19.0 °F 34% 29.95 in 10.0 mi WNW 15.0 mph 26.5 mph N/A   Scattered Clouds
3:54 PM 44.1 °F 36.2 °F 19.9 °F 38% 29.99 in 10.0 mi WNW 18.4 mph 24.2 mph N/A   Clear
4:54 PM 39.9 °F 29.7 °F 17.1 °F 40% 30.03 in 10.0 mi WNW 23.0 mph 31.1 mph N/A   Clear
5:54 PM 39.0 °F 30.3 °F 18.0 °F 43% 30.06 in 10.0 mi WNW 16.1 mph 26.5 mph N/A   Scattered Clouds
6:54 PM 34.0 °F 22.7 °F 17.1 °F 50% 30.09 in 10.0 mi NW 19.6 mph 32.2 mph N/A   Partly Cloudy
7:54 PM 32.0 °F 21.6 °F 14.0 °F 48% 30.11 in 10.0 mi WNW 15.0 mph 25.3 mph N/A   Partly Cloudy
8:54 PM 30.9 °F 19.4 °F 15.1 °F 52% 30.11 in 10.0 mi WNW 17.3 mph 21.9 mph N/A   Scattered Clouds
9:54 PM 30.0 °F 19.1 °F 10.9 °F 45% 30.11 in 10.0 mi WNW 15.0 mph 23.0 mph N/A   Mostly Cloudy
10:54 PM 28.9 °F 18.2 °F 10.9 °F 47% 30.12 in 10.0 mi WNW 13.8 mph 29.9 mph N/A   Mostly Cloudy
11:54 PM 28.9 °F 17.7 °F 12.0 °F 49% 30.12 in 10.0 mi West 15.0 mph - N/A   Overcast